Location: Rometta
(44.2000°N, 10.0500°E)
Time: 22:15:05
(UTC+00:00)

Cosmos 1844 - Pass Details

Date: 20 January 2021
Orbit: 821 x 869 km, 70.9° (Epoch: 03 March)

Event Time Altitude Azimuth Distance (km) Brightness Sun altitude
Rises 17:44:56 0° 192° (SSW) 3,366 7.2 -16.2°
Reaches altitude 10° 17:47:23 10° 188° (S) 2,443 6.4 -16.6°
Maximum altitude 17:52:53 59° 110° (ESE) 969 3.7 -17.6°
Enters shadow 17:56:38 21° 37° (NE) 1,822 5.0 -18.3°
